UAL1954 KDEN-KLAX

Flight info

Callsign UAL1954
Flight time N/A
Altitude 36000
Route KDEN/34L N0445F360 BAYLR6 TEHRU DCT JASSE Q90 DNERO ANJLL4 KLAX/24R
Aircraft B38M/M-SDE2E3FGHIJ1RWXY/HB1

Departure

Time 2026-05-07 23:44
Airport Denver International Airport (KDEN)

Arrival

Time N/A
Airport Los Angeles International Airport (KLAX)
Time Latitude Longitude Altitude Speed Heading
2026-05-07 22:52 39.85333 -104.67615 5384 ft 0 kts
2026-05-07 23:31 39.85330 -104.67615 5386 ft 3 kts
2026-05-07 23:31 39.85303 -104.67616 5385 ft 4 kts
2026-05-07 23:32 39.85280 -104.67616 5386 ft 4 kts 346°
2026-05-07 23:32 39.85257 -104.67601 5384 ft 4 kts 311°
2026-05-07 23:32 39.85244 -104.67572 5384 ft 4 kts 288°
2026-05-07 23:32 39.85238 -104.67538 5386 ft 4 kts 274°
2026-05-07 23:33 39.85237 -104.67519 5386 ft 0 kts 270°
2026-05-07 23:38 39.85237 -104.67521 5387 ft 1 kts 270°
2026-05-07 23:38 39.85237 -104.67558 5387 ft 7 kts 270°
2026-05-07 23:39 39.85238 -104.67639 5387 ft 11 kts 271°
2026-05-07 23:39 39.85239 -104.67752 5387 ft 14 kts 270°
2026-05-07 23:39 39.85239 -104.67870 5387 ft 14 kts 270°
2026-05-07 23:39 39.85240 -104.68003 5387 ft 15 kts 271°
2026-05-07 23:40 39.85242 -104.68139 5387 ft 15 kts 268°
2026-05-07 23:40 39.85225 -104.68257 5389 ft 12 kts 255°
2026-05-07 23:40 39.85207 -104.68361 5388 ft 13 kts 264°
2026-05-07 23:40 39.85207 -104.68529 5372 ft 20 kts 270°
2026-05-07 23:41 39.85204 -104.68718 5365 ft 22 kts 269°
2026-05-07 23:41 39.85200 -104.68914 5357 ft 17 kts 269°
2026-05-07 23:41 39.85200 -104.69022 5353 ft 19 kts 270°
2026-05-07 23:41 39.85199 -104.69200 5349 ft 16 kts 270°
2026-05-07 23:42 39.85201 -104.69351 5344 ft 18 kts 271°
2026-05-07 23:42 39.85203 -104.69483 5338 ft 9 kts 270°
2026-05-07 23:42 39.85204 -104.69569 5337 ft 10 kts 271°
2026-05-07 23:42 39.85221 -104.69639 5338 ft 8 kts 312°
2026-05-07 23:43 39.85279 -104.69660 5337 ft 10 kts
2026-05-07 23:43 39.85473 -104.69657 5339 ft 63 kts
2026-05-07 23:43 39.86190 -104.69660 5338 ft 140 kts 358°
2026-05-07 23:43 39.87307 -104.69646 5656 ft 176 kts 357°
2026-05-07 23:44 39.88591 -104.69761 6345 ft 189 kts 346°
2026-05-07 23:44 39.89698 -104.70532 7025 ft 185 kts 315°
2026-05-07 23:44 39.90296 -104.72039 7333 ft 198 kts 281°
2026-05-07 23:44 39.90060 -104.73889 7845 ft 223 kts 244°
2026-05-07 23:45 39.89030 -104.75532 8379 ft 246 kts 230°
2026-05-07 23:45 39.87747 -104.77136 8944 ft 265 kts 227°
2026-05-07 23:45 39.86376 -104.78848 9552 ft 279 kts 229°
2026-05-07 23:45 39.84959 -104.80706 9962 ft 302 kts 229°
2026-05-07 23:46 39.83430 -104.82736 9997 ft 320 kts 229°
2026-05-07 23:46 39.81858 -104.84780 9991 ft 319 kts 228°
2026-05-07 23:46 39.80274 -104.86830 9990 ft 322 kts 228°
2026-05-07 23:46 39.78689 -104.88902 9989 ft 322 kts 230°
2026-05-07 23:47 39.77450 -104.91226 9991 ft 315 kts 249°
2026-05-07 23:47 39.76770 -104.93924 10419 ft 314 kts 256°
2026-05-07 23:47 39.76168 -104.96671 11284 ft 318 kts 257°
2026-05-07 23:47 39.75561 -104.99455 12111 ft 322 kts 257°
2026-05-07 23:48 39.74934 -105.02269 12925 ft 327 kts 255°
2026-05-07 23:48 39.74079 -105.05040 13749 ft 332 kts 250°
2026-05-07 23:48 39.73161 -105.07813 14474 ft 336 kts 250°
2026-05-07 23:48 39.72235 -105.10629 15188 ft 340 kts 250°
2026-05-07 23:49 39.71308 -105.13475 15891 ft 344 kts 250°
2026-05-07 23:49 39.70370 -105.16345 16588 ft 347 kts 250°
2026-05-07 23:49 39.69419 -105.19240 17292 ft 350 kts 251°
2026-05-07 23:49 39.68459 -105.22159 18019 ft 353 kts 251°
2026-05-07 23:50 39.67502 -105.25073 18614 ft 356 kts 251°
2026-05-07 23:50 39.66525 -105.28046 19163 ft 359 kts 251°
2026-05-07 23:50 39.65538 -105.31046 19713 ft 363 kts 251°
2026-05-07 23:50 39.64539 -105.34074 20281 ft 367 kts 251°
2026-05-07 23:51 39.63529 -105.37128 20893 ft 370 kts 251°
2026-05-07 23:51 39.62510 -105.40212 21484 ft 373 kts 251°
2026-05-07 23:51 39.61487 -105.43319 22051 ft 376 kts 251°
2026-05-07 23:51 39.60453 -105.46455 22617 ft 379 kts 251°
2026-05-07 23:52 39.59407 -105.49617 23144 ft 383 kts 251°
2026-05-07 23:52 39.58347 -105.52804 23713 ft 386 kts 251°
2026-05-07 23:52 39.57276 -105.56008 24188 ft 388 kts 251°
2026-05-07 23:52 39.56200 -105.59235 24640 ft 391 kts 251°
2026-05-07 23:53 39.55148 -105.62489 25104 ft 391 kts 254°
2026-05-07 23:53 39.54241 -105.65771 25571 ft 393 kts 254°
2026-05-07 23:53 39.53325 -105.69114 26048 ft 395 kts 255°
2026-05-07 23:53 39.52396 -105.72472 26480 ft 397 kts 255°
2026-05-07 23:54 39.51457 -105.75849 26906 ft 399 kts 255°
2026-05-07 23:54 39.50509 -105.79258 27357 ft 402 kts 255°
2026-05-07 23:54 39.49562 -105.82674 27767 ft 404 kts 255°
2026-05-07 23:54 39.48621 -105.86059 28167 ft 407 kts 255°
2026-05-07 23:55 39.47658 -105.89515 28558 ft 409 kts 255°
2026-05-07 23:55 39.46689 -105.92986 28980 ft 412 kts 255°
2026-05-07 23:55 39.45713 -105.96482 29373 ft 414 kts 255°
2026-05-07 23:55 39.44732 -105.99984 29881 ft 413 kts 256°
2026-05-07 23:56 39.43753 -106.03474 30406 ft 412 kts 255°
2026-05-07 23:56 39.42777 -106.06956 30861 ft 410 kts 256°
2026-05-07 23:56 39.41803 -106.10426 31277 ft 409 kts 256°
2026-05-07 23:56 39.40831 -106.13879 31721 ft 408 kts 256°
2026-05-07 23:57 39.39862 -106.17322 32168 ft 407 kts 256°
2026-05-07 23:57 39.38905 -106.20715 32608 ft 405 kts 256°
2026-05-07 23:57 39.37936 -106.24144 33062 ft 404 kts 256°
2026-05-07 23:57 39.36973 -106.27549 33614 ft 403 kts 257°
2026-05-07 23:58 39.36008 -106.30956 34056 ft 402 kts 257°
2026-05-07 23:58 39.35048 -106.34341 34433 ft 401 kts 257°
2026-05-07 23:58 39.34089 -106.37720 34766 ft 400 kts 257°
2026-05-07 23:58 39.33129 -106.41096 35055 ft 400 kts 257°
2026-05-07 23:59 39.32170 -106.44469 35354 ft 399 kts 257°
2026-05-07 23:59 39.31223 -106.47787 35687 ft 399 kts 257°
2026-05-07 23:59 39.30264 -106.51146 36004 ft 398 kts 256°
2026-05-07 23:59 39.29301 -106.54515 36177 ft 398 kts 257°
2026-05-08 00:00 39.27384 -106.61215 36125 ft 397 kts 256°
2026-05-08 00:00 39.25456 -106.67939 36132 ft 399 kts 256°
2026-05-08 00:01 39.22940 -106.74393 36163 ft 412 kts 241°
2026-05-08 00:01 39.19526 -106.80296 36148 ft 411 kts 240°
2026-05-08 00:02 39.16140 -106.86170 36131 ft 409 kts 240°
2026-05-08 00:02 39.12722 -106.92071 36009 ft 411 kts 241°
2026-05-08 00:03 39.09326 -106.97932 36002 ft 407 kts 240°
2026-05-08 00:03 39.05910 -107.03817 36014 ft 410 kts 240°
2026-05-08 00:04 39.02485 -107.09703 36008 ft 412 kts 240°
2026-05-08 00:04 38.99067 -107.15566 36014 ft 412 kts 240°
2026-05-08 00:05 38.95634 -107.21451 36000 ft 414 kts 240°
2026-05-08 00:05 38.92174 -107.27359 36003 ft 413 kts 240°
2026-05-08 00:06 38.88719 -107.33257 36002 ft 413 kts 240°
2026-05-08 00:06 38.85258 -107.39150 36001 ft 413 kts 240°
2026-05-08 00:07 38.81809 -107.45015 36000 ft 414 kts 240°
2026-05-08 00:07 38.78336 -107.50908 35991 ft 415 kts 240°
2026-05-08 00:08 38.74867 -107.56785 36003 ft 415 kts 240°
2026-05-08 00:08 38.71388 -107.62666 35993 ft 414 kts 240°
2026-05-08 00:09 38.67907 -107.68542 35990 ft 414 kts 240°
2026-05-08 00:09 38.64415 -107.74427 35977 ft 417 kts 239°
2026-05-08 00:10 38.60900 -107.80335 35974 ft 417 kts 239°
2026-05-08 00:10 38.59166 -107.83251 36097 ft 417 kts 239°
2026-05-08 00:10 38.57408 -107.86196 36099 ft 416 kts 239°
2026-05-08 00:11 38.53894 -107.92084 36102 ft 417 kts 239°
2026-05-08 00:11 38.50366 -107.97985 36101 ft 417 kts 239°
2026-05-08 00:12 38.46869 -108.03822 36091 ft 417 kts 239°
2026-05-08 00:12 38.43340 -108.09704 36075 ft 417 kts 239°
2026-05-08 00:13 38.39805 -108.15586 36050 ft 418 kts 239°
2026-05-08 00:13 38.36266 -108.21459 36012 ft 418 kts 238°
2026-05-08 00:14 38.32721 -108.27336 36018 ft 418 kts 238°
2026-05-08 00:14 38.29194 -108.33170 36027 ft 418 kts 238°
2026-05-08 00:15 38.25641 -108.39039 36034 ft 418 kts 238°
2026-05-08 00:15 38.22081 -108.44908 36001 ft 419 kts 238°
2026-05-08 00:16 38.18512 -108.50780 36003 ft 419 kts 238°
2026-05-08 00:16 38.14969 -108.56600 36008 ft 419 kts 238°
2026-05-08 00:17 38.11395 -108.62460 35993 ft 419 kts 238°
2026-05-08 00:17 38.07818 -108.68314 36008 ft 419 kts 238°
2026-05-08 00:18 38.04238 -108.74165 36005 ft 422 kts 237°
2026-05-08 00:18 38.00630 -108.80046 36005 ft 422 kts 237°
2026-05-08 00:19 37.97037 -108.85897 36005 ft 422 kts 237°
2026-05-08 00:19 37.93421 -108.91772 36008 ft 422 kts 237°
2026-05-08 00:20 37.89821 -108.97613 36004 ft 422 kts 237°
2026-05-08 00:20 37.86197 -109.03481 36007 ft 422 kts 237°
2026-05-08 00:21 37.82573 -109.09338 36003 ft 422 kts 237°
2026-05-08 00:21 37.78943 -109.15195 36011 ft 425 kts 236°
2026-05-08 00:22 37.75294 -109.21073 36034 ft 425 kts 236°
2026-05-08 00:22 37.71645 -109.26940 36053 ft 427 kts 236°
2026-05-08 00:23 37.67969 -109.32837 36072 ft 427 kts 236°
2026-05-08 00:23 37.64296 -109.38722 36099 ft 427 kts 236°
2026-05-08 00:24 37.60615 -109.44609 36103 ft 427 kts 236°
2026-05-08 00:24 37.56943 -109.50472 36106 ft 429 kts 236°
2026-05-08 00:25 37.53234 -109.56379 36105 ft 429 kts 236°
2026-05-08 00:25 37.49528 -109.62275 36075 ft 429 kts 236°
2026-05-08 00:26 37.45840 -109.68131 36046 ft 429 kts 236°
2026-05-08 00:26 37.42119 -109.74028 35952 ft 432 kts 236°
2026-05-08 00:27 37.38382 -109.79939 35942 ft 431 kts 235°
2026-05-08 00:27 37.34635 -109.85858 35952 ft 433 kts 236°
2026-05-08 00:28 37.30894 -109.91756 35940 ft 432 kts 235°
2026-05-08 00:28 37.27782 -109.96653 35941 ft 431 kts 235°
2026-05-08 00:29 37.24040 -110.02535 35942 ft 431 kts 235°
2026-05-08 00:29 37.19683 -110.09366 35941 ft 431 kts 235°
2026-05-08 00:30 37.16537 -110.14293 35930 ft 431 kts 235°
2026-05-08 00:30 37.12794 -110.20144 35944 ft 433 kts 235°
2026-05-08 00:31 37.09015 -110.26040 35942 ft 434 kts 234°
2026-05-08 00:31 37.05229 -110.31936 35948 ft 434 kts 234°
2026-05-08 00:32 37.01426 -110.37850 35956 ft 435 kts 234°
2026-05-08 00:32 36.97651 -110.43708 35955 ft 435 kts 234°
2026-05-08 00:33 36.93856 -110.49590 35938 ft 436 kts 234°
2026-05-08 00:33 36.90040 -110.55489 35948 ft 436 kts 234°
2026-05-08 00:34 36.86217 -110.61393 35950 ft 436 kts 234°
2026-05-08 00:34 36.82393 -110.67286 35947 ft 436 kts 234°
2026-05-08 00:35 36.78586 -110.73143 35949 ft 438 kts 234°
2026-05-08 00:35 36.74744 -110.79043 35939 ft 438 kts 234°
2026-05-08 00:36 36.70896 -110.84942 35940 ft 439 kts 234°
2026-05-08 00:36 36.67052 -110.90824 35933 ft 439 kts 234°
2026-05-08 00:37 36.63194 -110.96720 35930 ft 439 kts 234°
2026-05-08 00:38 36.57387 -111.05571 35928 ft 439 kts 234°
2026-05-08 00:38 36.53542 -111.11419 35931 ft 439 kts 233°
2026-05-08 00:39 36.49669 -111.17300 35930 ft 440 kts 233°
2026-05-08 00:39 36.45783 -111.23190 35937 ft 440 kts 233°
2026-05-08 00:40 36.41890 -111.29081 35939 ft 440 kts 233°
2026-05-08 00:40 36.37999 -111.34957 35935 ft 440 kts 233°
2026-05-08 00:41 36.34131 -111.40790 35934 ft 440 kts 233°
2026-05-08 00:41 36.30231 -111.46659 35932 ft 441 kts 233°
2026-05-08 00:42 36.26328 -111.52524 35931 ft 441 kts 233°
2026-05-08 00:42 36.22426 -111.58377 35935 ft 441 kts 233°
2026-05-08 00:43 36.18543 -111.64193 35940 ft 441 kts 233°
2026-05-08 00:43 36.14617 -111.70059 35944 ft 443 kts 233°
2026-05-08 00:44 36.10686 -111.75927 35953 ft 444 kts 233°
2026-05-08 00:44 36.06910 -111.81924 36035 ft 438 kts 246°
2026-05-08 00:45 36.04612 -111.88867 36066 ft 435 kts 255°
2026-05-08 00:45 36.02487 -111.95882 36121 ft 437 kts 250°
2026-05-08 00:46 36.00193 -112.02792 36157 ft 436 kts 252°
2026-05-08 00:46 35.98001 -112.09785 36171 ft 436 kts 251°
2026-05-08 00:47 35.95732 -112.16745 36164 ft 436 kts 252°
2026-05-08 00:47 35.93517 -112.23667 36164 ft 436 kts 252°
2026-05-08 00:48 35.91259 -112.30628 36134 ft 436 kts 251°
2026-05-08 00:48 35.89007 -112.37592 36091 ft 436 kts 251°
2026-05-08 00:49 35.86747 -112.44546 36048 ft 437 kts 251°
2026-05-08 00:49 35.84484 -112.51500 35962 ft 437 kts 251°
2026-05-08 00:50 35.82219 -112.58444 35962 ft 437 kts 251°
2026-05-08 00:50 35.79960 -112.65350 35959 ft 437 kts 251°
2026-05-08 00:51 35.77685 -112.72292 35954 ft 437 kts 251°
2026-05-08 00:51 35.75402 -112.79242 35947 ft 437 kts 251°
2026-05-08 00:52 35.73132 -112.86136 35918 ft 437 kts 251°
2026-05-08 00:52 35.70843 -112.93073 35961 ft 437 kts 251°
2026-05-08 00:53 35.68550 -113.00004 35944 ft 437 kts 251°
2026-05-08 00:53 35.66252 -113.06937 35945 ft 438 kts 251°
2026-05-08 00:54 35.63956 -113.13844 35923 ft 439 kts 251°
2026-05-08 00:54 35.61644 -113.20785 35925 ft 439 kts 251°
2026-05-08 00:55 35.59325 -113.27730 35913 ft 439 kts 251°
2026-05-08 00:55 35.57002 -113.34672 35913 ft 439 kts 251°
2026-05-08 00:56 35.54673 -113.41614 35901 ft 439 kts 250°
2026-05-08 00:56 35.52358 -113.48500 35890 ft 438 kts 250°
2026-05-08 00:57 35.50025 -113.55424 35872 ft 438 kts 250°
2026-05-08 00:57 35.47692 -113.62331 35867 ft 438 kts 250°
2026-05-08 00:58 35.45353 -113.69243 35896 ft 438 kts 250°
2026-05-08 00:58 35.43011 -113.76146 35920 ft 438 kts 250°
2026-05-08 00:59 35.40685 -113.82986 35952 ft 438 kts 250°
2026-05-08 00:59 35.38337 -113.89875 35974 ft 437 kts 250°
2026-05-08 01:00 35.35988 -113.96753 35983 ft 438 kts 250°
2026-05-08 01:00 35.33631 -114.03638 35980 ft 438 kts 250°
2026-05-08 01:01 35.31273 -114.10510 35966 ft 438 kts 250°
2026-05-08 01:01 35.28918 -114.17360 35932 ft 435 kts 250°
2026-05-08 01:02 35.26564 -114.24193 35899 ft 435 kts 250°
2026-05-08 01:02 35.24209 -114.31010 35856 ft 435 kts 250°
2026-05-08 01:03 35.21849 -114.37828 35823 ft 435 kts 250°
2026-05-08 01:03 35.19488 -114.44635 35821 ft 434 kts 249°
2026-05-08 01:04 35.17141 -114.51386 35818 ft 434 kts 249°
2026-05-08 01:04 35.14776 -114.58175 35807 ft 434 kts 249°
2026-05-08 01:05 35.12406 -114.64966 35807 ft 434 kts 250°
2026-05-08 01:05 35.10346 -114.70918 35810 ft 434 kts 249°